CW0877 Weather Reports


Display with metric or nautical units.
time (UTC)temp
F
wind
direction
speed
MPH
gust
MPH
rain 1hr
in
rain 24hr
in
rain mn
in
humidity
%
barometer
mb
20190522164833 72 347 0.0 1.0 0.00 0.00 0.00 67 1023.4
20190522164320 72 325 0.0 2.0 0.00 0.00 0.00 67 1023.5
20190522163828 72 311 0.0 2.0 0.00 0.00 0.00 67 1023.3
20190522163319 71 360 0.0 1.0 0.00 0.00 0.00 70 1023.3
20190522162824 71 98 0.0 1.0 0.00 0.00 0.00 69 1023.3
20190522162325 71 90 0.0 1.0 0.00 0.00 0.00 68 1023.3
20190522161831 71 93 0.0 1.0 0.00 0.00 0.00 67 1023.4
20190522161316 71 101 0.0 1.0 0.00 0.00 0.00 67 1023.4
20190522160824 71 229 0.0 1.0 0.00 0.00 0.00 67 1023.3
20190522160331 71 24 0.0 1.0 0.00 0.00 0.00 67 1023.3
20190522155332 71 339 0.0 1.0 0.00 0.00 0.00 67 1023.1
20190522154825 71 348 0.0 0.0 0.00 0.00 0.00 67 1023.1
20190522154316 71 346 0.0 0.0 0.00 0.00 0.00 67 1023.0
20190522153826 70 345 0.0 0.0 0.00 0.00 0.00 66 1023.1
20190522153334 70 51 0.0 2.0 0.00 0.00 0.00 68 1023.0
20190522152331 70 104 1.0 2.0 0.00 0.00 0.00 67 1023.1
20190522151821 70 277 1.0 2.0 0.00 0.00 0.00 67 1023.0
20190522151329 69 93 0.0 2.0 0.00 0.00 0.00 69 1023.1
20190522150835 69 194 0.0 2.0 0.00 0.00 0.00 68 1023.1
20190522145818 69 345 1.0 3.0 0.00 0.00 0.00 68 1023.0
20190522145328 69 65 0.0 2.0 0.00 0.00 0.00 69 1023.0
20190522144816 69 85 0.0 1.0 0.00 0.00 0.00 69 1022.9
20190522144328 69 85 0.0 2.0 0.00 0.00 0.00 71 1023.1
20190522143818 68 57 1.0 2.0 0.00 0.00 0.00 71 1023.0
20190522143327 68 57 0.0 0.0 0.00 0.00 0.00 71 1023.1
20190522142818 68 57 0.0 2.0 0.00 0.00 0.00 70 1023.0
20190522142330 68 53 0.0 2.0 0.00 0.00 0.00 71 1023.0
20190522141834 68 51 0.0 2.0 0.00 0.00 0.00 71 1023.0
20190522141324 68 56 0.0 0.0 0.00 0.00 0.00 73 1023.0
20190522140830 68 138 0.0 0.0 0.00 0.00 0.00 74 1022.9
20190522135830 68 138 0.0 0.0 0.00 0.00 0.00 74 1022.9
20190522135321 68 159 0.0 0.0 0.00 0.00 0.00 74 1022.9
20190522134829 68 120 0.0 0.0 0.00 0.00 0.00 74 1022.9
20190522134319 67 122 0.0 0.0 0.00 0.00 0.00 74 1023.0
20190522133335 67 126 0.0 4.0 0.00 0.00 0.00 75 1023.0
20190522132825 67 128 1.0 4.0 0.00 0.00 0.00 75 1023.0
20190522132330 67 79 0.0 2.0 0.00 0.00 0.00 76 1023.1
20190522131819 67 117 0.0 1.0 0.00 0.00 0.00 76 1023.0
20190522131322 67 74 0.0 1.0 0.00 0.00 0.00 77 1023.0
20190522130829 67 72 0.0 1.0 0.00 0.00 0.00 76 1023.1
20190522130333 67 75 0.0 1.0 0.00 0.00 0.00 76 1023.1
20190522125833 66 76 0.0 1.0 0.00 0.00 0.00 76 1023.1
20190522125324 66 63 0.0 3.0 0.00 0.00 0.00 75 1023.1
20190522124835 66 62 0.0 3.0 0.00 0.00 0.00 75 1023.0
20190522123820 66 111 1.0 4.0 0.00 0.00 0.00 76 1022.9
20190522123328 66 129 0.0 1.0 0.00 0.00 0.00 77 1022.9
20190522122833 66 133 0.0 3.0 0.00 0.00 0.00 76 1022.9
20190522122337 66 86 0.0 3.0 0.00 0.00 0.00 76 1023.1
20190522121826 66 141 0.0 2.0 0.00 0.00 0.00 75 1023.0
20190522121329 66 136 0.0 2.0 0.00 0.00 0.00 76 1023.0
20190522120816 66 150 0.0 0.0 0.00 0.00 0.00 76 1023.0
20190522120327 66 146 0.0 0.0 0.00 0.00 0.00 76 1023.0
20190522115831 66 157 0.0 0.0 0.00 0.00 0.00 77 1023.0
20190522115317 66 90 0.0 0.0 0.00 0.00 0.00 77 1022.8
20190522114827 66 103 0.0 0.0 0.00 0.00 0.00 79 1022.9
20190522114317 66 107 0.0 0.0 0.00 0.00 0.00 79 1022.7
20190522113823 66 107 0.0 0.0 0.00 0.00 0.00 79 1022.7
20190522113319 66 107 0.0 0.0 0.00 0.00 0.00 78 1022.6
20190522112321 66 107 0.0 0.0 0.00 0.00 0.00 78 1022.8
20190522111828 66 107 0.0 0.0 0.00 0.00 0.00 78 1022.7
20190522111333 66 128 0.0 0.0 0.00 0.00 0.00 78 1022.7
20190522110822 66 137 0.0 0.0 0.00 0.00 0.00 79 1022.5
20190522110334 66 137 0.0 0.0 0.00 0.00 0.00 79 1022.4
20190522105826 66 136 0.0 1.0 0.00 0.00 0.00 79 1022.3
20190522105333 66 136 0.0 1.0 0.00 0.00 0.00 79 1022.1
20190522104824 66 118 0.0 1.0 0.00 0.00 0.00 79 1022.1
20190522104329 66 117 0.0 1.0 0.00 0.00 0.00 80 1021.9
20190522103834 66 256 0.0 0.0 0.00 0.00 0.00 79 1021.9
20190522102833 66 178 0.0 3.0 0.00 0.00 0.00 79 1021.7
20190522102317 66 45 0.0 3.0 0.00 0.00 0.00 79 1021.5
20190522101827 66 59 1.0 2.0 0.00 0.00 0.00 80 1021.4
20190522101330 66 60 0.0 0.0 0.00 0.00 0.00 80 1021.2
20190522100836 66 60 0.0 0.0 0.00 0.00 0.00 82 1021.1
20190522100321 66 88 0.0 0.0 0.00 0.00 0.00 82 1021.0
20190522095833 66 167 0.0 0.0 0.00 0.00 0.00 82 1020.9
20190522095325 67 157 0.0 0.0 0.00 0.00 0.00 82 1020.9
20190522094831 67 157 0.0 0.0 0.00 0.00 0.00 82 1020.8
20190522094335 67 157 0.0 0.0 0.00 0.00 0.00 82 1020.8
20190522093832 67 355 0.0 0.0 0.00 0.00 0.00 82 1020.7
20190522093320 67 355 0.0 0.0 0.00 0.00 0.00 82 1020.8
20190522092324 67 127 0.0 2.0 0.00 0.00 0.00 82 1020.6
20190522091834 67 125 0.0 2.0 0.00 0.00 0.00 82 1020.6
20190522091316 67 130 1.0 1.0 0.00 0.00 0.00 82 1020.5
20190522090825 67 157 0.0 0.0 0.00 0.00 0.00 83 1020.5
20190522090333 67 138 0.0 0.0 0.00 0.00 0.00 83 1020.5
20190522085824 67 148 0.0 2.0 0.00 0.00 0.00 83 1020.4
20190522085321 67 148 0.0 2.0 0.00 0.00 0.00 83 1020.4
20190522084834 67 139 0.0 0.0 0.00 0.00 0.00 83 1020.4
20190522084327 67 139 0.0 0.0 0.00 0.00 0.00 83 1020.4
20190522083820 67 139 0.0 0.0 0.00 0.00 0.00 83 1020.5
20190522083332 67 139 0.0 0.0 0.00 0.00 0.00 83 1020.4
20190522082824 67 140 0.0 0.0 0.00 0.00 0.00 83 1020.3
20190522082335 67 95 0.0 0.0 0.00 0.00 0.00 83 1020.2
20190522081826 67 95 0.0 1.0 0.00 0.00 0.00 83 1020.1
20190522081317 67 94 0.0 1.0 0.00 0.00 0.00 83 1020.0
20190522080828 67 94 0.0 0.0 0.00 0.00 0.00 83 1020.0
20190522080320 67 66 0.0 0.0 0.00 0.00 0.00 83 1019.8
20190522075833 67 66 0.0 0.0 0.00 0.00 0.00 83 1019.8
20190522074816 67 65 0.0 1.0 0.00 0.00 0.00 82 1019.9
20190522074327 68 65 0.0 0.0 0.00 0.00 0.00 82 1019.9
20190522073820 68 65 0.0 0.0 0.00 0.00 0.00 82 1019.7
20190522073333 68 65 0.0 0.0 0.00 0.00 0.00 82 1019.7
20190522072824 68 65 0.0 0.0 0.00 0.00 0.00 82 1019.7
20190522072333 68 65 0.0 0.0 0.00 0.00 0.00 81 1019.6
20190522071334 68 65 0.0 0.0 0.00 0.00 0.00 81 1019.5
20190522070824 68 65 0.0 0.0 0.00 0.00 0.00 81 1019.6
20190522070319 69 40 0.0 0.0 0.00 0.00 0.00 80 1019.6
20190522065829 69 40 0.0 0.0 0.00 0.00 0.00 80 1019.6
20190522065322 69 40 0.0 0.0 0.00 0.00 0.00 80 1019.7
20190522064833 69 42 0.0 0.0 0.00 0.00 0.00 80 1019.6
20190522064324 69 142 0.0 1.0 0.00 0.00 0.00 79 1019.5
20190522063817 69 26 0.0 3.0 0.00 0.00 0.00 79 1019.5
20190522063330 69 65 0.0 3.0 0.00 0.00 0.00 78 1019.4
20190522062822 69 123 0.0 0.0 0.00 0.00 0.00 78 1019.3
20190522062332 69 95 0.0 0.0 0.00 0.00 0.00 77 1019.3
20190522061823 69 136 0.0 0.0 0.00 0.00 0.00 76 1019.3
20190522061333 70 143 0.0 0.0 0.00 0.00 0.00 76 1019.2
20190522060826 70 143 0.0 0.0 0.00 0.00 0.00 75 1019.3
20190522060318 70 144 0.0 0.0 0.00 0.00 0.00 75 1019.4
20190522055830 70 142 0.0 0.0 0.00 0.00 0.00 74 1019.2
20190522055332 70 233 0.0 0.0 0.00 0.00 0.00 74 1019.2
20190522054824 70 74 0.0 0.0 0.00 0.00 0.00 74 1019.2
20190522054334 70 74 0.0 0.0 0.00 0.00 0.00 73 1019.2
20190522053822 70 48 0.0 0.0 0.00 0.00 0.00 73 1019.1
20190522053328 70 79 0.0 0.0 0.00 0.00 0.00 72 1019.1
20190522052817 70 79 0.0 0.0 0.00 0.00 0.00 72 1019.1
20190522052328 70 79 0.0 0.0 0.00 0.00 0.00 72 1019.0
20190522051840 70 14 0.0 0.0 0.00 0.00 0.00 71 1019.0
20190522051335 71 13 0.0 0.0 0.00 0.00 0.00 71 1019.0
20190522050826 71 99 0.0 0.0 0.00 0.00 0.00 71 1019.1
20190522050317 71 94 0.0 0.0 0.00 0.00 0.00 70 1019.0
20190522045825 71 54 0.0 0.0 0.00 0.00 0.00 70 1019.0
20190522045316 71 49 0.0 0.0 0.00 0.00 0.00 70 1018.9
20190522044825 71 69 0.0 0.0 0.00 0.00 0.00 69 1018.8
20190522044331 71 69 0.0 0.0 0.00 0.00 0.00 69 1018.8
20190522043823 71 69 0.0 0.0 0.00 0.00 0.00 69 1018.7
20190522043326 71 69 0.0 0.0 0.00 0.00 0.00 68 1018.7
20190522042816 72 63 0.0 0.0 0.00 0.00 0.00 68 1018.7
20190522042328 72 66 0.0 0.0 0.00 0.00 0.00 68 1018.6
20190522041820 72 57 0.0 0.0 0.00 0.00 0.00 67 1018.6
20190522041326 72 62 0.0 0.0 0.00 0.00 0.00 67 1018.5
20190522035818 72 50 0.0 0.0 0.00 0.00 0.00 67 1018.3
20190522035324 72 56 0.0 0.0 0.00 0.00 0.00 67 1018.4
20190522034834 72 55 0.0 0.0 0.00 0.00 0.00 66 1018.3
20190522034325 72 54 0.0 0.0 0.00 0.00 0.00 66 1018.4
20190522033834 72 54 0.0 0.0 0.00 0.00 0.00 66 1018.4
20190522033325 73 49 0.0 0.0 0.00 0.00 0.00 65 1018.3
20190522032817 73 49 0.0 0.0 0.00 0.00 0.00 65 1018.3
20190522032323 73 49 0.0 0.0 0.00 0.00 0.00 65 1018.2
20190522031830 73 49 0.0 0.0 0.00 0.00 0.00 65 1018.1
20190522031319 73 49 0.0 0.0 0.00 0.00 0.00 64 1018.1
20190522030830 73 49 0.0 0.0 0.00 0.00 0.00 64 1018.0
20190522030332 73 49 0.0 0.0 0.00 0.00 0.00 64 1018.0
20190522025822 74 49 0.0 0.0 0.00 0.00 0.00 63 1017.8
20190522025326 74 49 0.0 0.0 0.00 0.00 0.00 63 1017.7
20190522024835 74 49 0.0 0.0 0.00 0.00 0.00 63 1017.6
20190522024325 74 49 0.0 0.0 0.00 0.00 0.00 62 1017.6
20190522023828 74 49 0.0 0.0 0.00 0.00 0.00 62 1017.5
20190522023318 74 49 0.0 0.0 0.00 0.00 0.00 62 1017.4
20190522022830 75 49 0.0 0.0 0.00 0.00 0.00 61 1017.3
20190522022323 75 49 0.0 0.0 0.00 0.00 0.00 61 1017.3
20190522021819 75 49 0.0 0.0 0.00 0.00 0.00 60 1017.2
20190522021330 75 49 0.0 0.0 0.00 0.00 0.00 60 1017.1
20190522020816 75 49 0.0 0.0 0.00 0.00 0.00 60 1017.1
20190522020320 76 49 0.0 0.0 0.00 0.00 0.00 59 1017.0
20190522015829 76 49 0.0 0.0 0.00 0.00 0.00 59 1016.9
20190522015320 76 49 0.0 0.0 0.00 0.00 0.00 59 1016.8
20190522014832 76 49 0.0 0.0 0.00 0.00 0.00 58 1016.7
20190522013816 77 49 0.0 0.0 0.00 0.00 0.00 58 1016.6
20190522013324 77 49 0.0 0.0 0.00 0.00 0.00 57 1016.4
20190522012828 77 48 0.0 0.0 0.00 0.00 0.00 57 1016.3
20190522012318 77 48 0.0 1.0 0.00 0.00 0.00 56 1016.2
20190522011826 77 48 0.0 1.0 0.00 0.00 0.00 55 1016.1
20190522011319 77 48 0.0 0.0 0.00 0.00 0.00 55 1016.1
20190522010820 77 312 0.0 0.0 0.00 0.00 0.00 55 1016.0
20190522010328 77 312 0.0 0.0 0.00 0.00 0.00 55 1016.0
20190522004822 78 312 0.0 0.0 0.00 0.00 0.00 53 1015.8
20190522004320 78 312 0.0 0.0 0.00 0.00 0.00 52 1015.7
20190522003825 78 312 0.0 0.0 0.00 0.00 0.00 54 1015.6
20190522003329 78 310 0.0 0.0 0.00 0.00 0.00 56 1015.5
20190522002818 79 310 0.0 0.0 0.00 0.00 0.00 57 1015.5
20190522001816 79 302 0.0 0.0 0.00 0.00 0.00 55 1015.5
20190522001323 79 283 0.0 0.0 0.00 0.00 0.00 54 1015.4
20190522000831 79 287 0.0 0.0 0.00 0.00 0.00 55 1015.3
20190521235829 80 268 0.0 0.0 0.00 0.00 0.00 54 1015.1
20190521235317 80 269 0.0 0.0 0.00 0.00 0.00 53 1015.0
20190521234828 80 247 0.0 0.0 0.00 0.00 0.00 53 1014.9
20190521234321 80 278 0.0 0.0 0.00 0.00 0.00 53 1014.8
20190521233830 81 277 0.0 0.0 0.00 0.00 0.00 52 1014.8
20190521231825 81 305 0.0 0.0 0.00 0.00 0.00 50 1014.6
20190521231331 81 327 0.0 0.0 0.00 0.00 0.00 50 1014.6
20190521230819 82 320 0.0 0.0 0.00 0.00 0.00 49 1014.6
20190521230324 82 331 0.0 0.0 0.00 0.00 0.00 50 1014.6
20190521225827 82 346 0.0 0.0 0.00 0.00 0.00 50 1014.5